User: anonymous   Login
Location: Caltech
(34.1382°N, 118.1253°W)
Time: 11:14:27
(UTC-07:00)
Language:

OAO 2 Rocket - Orbit

View from above orbital plane
View from above orbital plane
View from above satellite
View from above satellite

Ground track
Ground track

The orbit data is extracted from the following two-line orbital elements,

1 03598U 68110B   15117.86122392  .00000672  00000-0  15960-3 0  9998
2 03598 034.9936 068.4490 0049360 010.5036 349.6679 14.54015251452675
Epoch (UTC): 27 April 2015 20:40:09
Eccentricity: 0.0049360
inclination: 34.9936°
perigee height: 677 km
apogee height: 747 km
right ascension of ascending node: 68.4490°
argument of perigee: 10.5036°
revolutions per day: 14.54015251
mean anomaly at epoch: 349.6679°
orbit number at epoch: 45267

The dashed part of the orbit path shows where the satellite is in the earth's shadow,  

DLR